UPS241 PANC-KBFI

Flight info

Callsign UPS241
Flight time N/A
Altitude 37000
Route NOEND4 NOEND LAIRE VIXOR ROSLN JAWBN JAWBN7
Aircraft B763/H-SDE3FGHIM3RWXY/LB1

Departure

Time 2026-05-05 11:24
Airport Ted Stevens Anchorage International Airport (PANC)

Arrival

Time N/A
Airport King County International Airport - Boeing Field (KBFI)
Time Latitude Longitude Altitude Speed Heading
2026-05-05 11:09 61.19223 -150.00485 163 ft 0 kts 314°
2026-05-05 11:10 61.19221 -150.00481 163 ft 2 kts 314°
2026-05-05 11:10 61.19214 -150.00467 163 ft 0 kts 313°
2026-05-05 11:11 61.19205 -150.00446 163 ft 2 kts 309°
2026-05-05 11:11 61.19196 -150.00423 163 ft 2 kts 304°
2026-05-05 11:11 61.19193 -150.00412 163 ft 2 kts 302°
2026-05-05 11:12 61.19190 -150.00403 163 ft 2 kts 300°
2026-05-05 11:12 61.19183 -150.00375 163 ft 2 kts 294°
2026-05-05 11:12 61.19178 -150.00348 163 ft 2 kts 289°
2026-05-05 11:13 61.19173 -150.00319 163 ft 2 kts 284°
2026-05-05 11:13 61.19170 -150.00290 163 ft 2 kts 279°
2026-05-05 11:13 61.19168 -150.00261 163 ft 2 kts 274°
2026-05-05 11:13 61.19168 -150.00233 163 ft 2 kts 269°
2026-05-05 11:14 61.19169 -150.00205 163 ft 2 kts 264°
2026-05-05 11:14 61.19171 -150.00176 163 ft 2 kts 259°
2026-05-05 11:14 61.19173 -150.00157 163 ft 0 kts 256°
2026-05-05 11:14 61.19173 -150.00153 163 ft 0 kts 255°
2026-05-05 11:16 61.19172 -150.00160 163 ft 1 kts 255°
2026-05-05 11:16 61.19168 -150.00194 163 ft 3 kts 255°
2026-05-05 11:16 61.19167 -150.00195 163 ft 0 kts 255°
2026-05-05 11:18 61.19167 -150.00197 163 ft 0 kts 255°
2026-05-05 11:18 61.19161 -150.00250 163 ft 7 kts 255°
2026-05-05 11:18 61.19144 -150.00377 163 ft 11 kts 255°
2026-05-05 11:19 61.19127 -150.00510 163 ft 7 kts 255°
2026-05-05 11:19 61.19089 -150.00603 163 ft 9 kts 194°
2026-05-05 11:19 61.19011 -150.00574 163 ft 13 kts 162°
2026-05-05 11:19 61.18910 -150.00514 163 ft 17 kts 165°
2026-05-05 11:20 61.18791 -150.00447 163 ft 20 kts 165°
2026-05-05 11:20 61.18648 -150.00365 163 ft 23 kts 165°
2026-05-05 11:20 61.18483 -150.00272 163 ft 26 kts 164°
2026-05-05 11:20 61.18296 -150.00163 163 ft 29 kts 164°
2026-05-05 11:21 61.18086 -150.00041 163 ft 32 kts 164°
2026-05-05 11:21 61.17864 -149.99913 163 ft 30 kts 164°
2026-05-05 11:21 61.17684 -149.99808 163 ft 24 kts 164°
2026-05-05 11:21 61.17530 -149.99718 163 ft 23 kts 164°
2026-05-05 11:22 61.17404 -149.99643 163 ft 16 kts 164°
2026-05-05 11:22 61.17317 -149.99615 163 ft 9 kts 197°
2026-05-05 11:22 61.17290 -149.99707 163 ft 6 kts 271°
2026-05-05 11:22 61.17290 -149.99725 163 ft 4 kts 271°
2026-05-05 11:23 61.17291 -149.99803 163 ft 6 kts 271°
2026-05-05 11:23 61.17296 -149.99907 163 ft 9 kts 285°
2026-05-05 11:23 61.17343 -149.99994 163 ft 12 kts 348°
2026-05-05 11:23 61.17440 -150.00041 163 ft 25 kts 344°
2026-05-05 11:24 61.17775 -150.00223 163 ft 105 kts 345°
2026-05-05 11:24 61.18676 -150.00709 588 ft 177 kts 347°
2026-05-05 11:24 61.19639 -150.01292 2110 ft 159 kts 343°
2026-05-05 11:24 61.20513 -150.02240 2495 ft 172 kts 328°
2026-05-05 11:25 61.21379 -150.03593 2955 ft 175 kts 327°
2026-05-05 11:25 61.22285 -150.04950 3341 ft 183 kts 330°
2026-05-05 11:25 61.23309 -150.06421 3753 ft 193 kts 330°
2026-05-05 11:26 61.24340 -150.07858 4094 ft 205 kts 330°
2026-05-05 11:26 61.25433 -150.09351 4446 ft 217 kts 331°
2026-05-05 11:26 61.26592 -150.10915 4751 ft 229 kts 331°
2026-05-05 11:26 61.27800 -150.12448 5034 ft 239 kts 339°
2026-05-05 11:27 61.29248 -150.13068 5330 ft 238 kts
2026-05-05 11:27 61.30629 -150.12135 5747 ft 231 kts 38°
2026-05-05 11:27 61.31678 -150.10165 6206 ft 227 kts 50°
2026-05-05 11:27 61.32669 -150.08081 6650 ft 230 kts 50°
2026-05-05 11:28 61.33672 -150.05968 7070 ft 232 kts 51°
2026-05-05 11:28 61.34675 -150.03790 7493 ft 234 kts 54°
2026-05-05 11:28 61.35333 -150.01123 7921 ft 227 kts 82°
2026-05-05 11:28 61.35251 -149.98299 8386 ft 221 kts 110°
2026-05-05 11:29 61.34559 -149.95926 8853 ft 219 kts 128°
2026-05-05 11:29 61.33705 -149.93730 9247 ft 223 kts 128°
2026-05-05 11:29 61.32835 -149.91560 9627 ft 225 kts 130°
2026-05-05 11:29 61.31932 -149.89404 10079 ft 225 kts 130°
2026-05-05 11:30 61.31015 -149.87265 10511 ft 225 kts 131°
2026-05-05 11:30 61.30098 -149.85162 10938 ft 225 kts 131°
2026-05-05 11:30 61.29141 -149.82989 11275 ft 229 kts 132°
2026-05-05 11:30 61.28189 -149.80847 11672 ft 229 kts 132°
2026-05-05 11:31 61.27222 -149.78659 12011 ft 231 kts 130°
2026-05-05 11:31 61.26560 -149.76071 12304 ft 236 kts 110°
2026-05-05 11:31 61.26178 -149.73132 12633 ft 238 kts 108°
2026-05-05 11:31 61.25780 -149.70161 12931 ft 240 kts 108°
2026-05-05 11:32 61.25386 -149.67154 13256 ft 241 kts 108°
2026-05-05 11:32 61.24998 -149.64172 13573 ft 241 kts 108°
2026-05-05 11:32 61.24620 -149.61137 13823 ft 245 kts 106°
2026-05-05 11:32 61.24306 -149.58008 14122 ft 245 kts 105°
2026-05-05 11:33 61.23997 -149.54903 14382 ft 247 kts 105°
2026-05-05 11:33 61.23681 -149.51753 14648 ft 247 kts 105°
2026-05-05 11:33 61.23366 -149.48604 14889 ft 249 kts 105°
2026-05-05 11:33 61.23049 -149.45450 15143 ft 250 kts 105°
2026-05-05 11:34 61.22725 -149.42226 15326 ft 253 kts 105°
2026-05-05 11:34 61.22404 -149.39043 15597 ft 252 kts 105°
2026-05-05 11:34 61.22090 -149.35791 15770 ft 256 kts 105°
2026-05-05 11:34 61.21780 -149.32509 16025 ft 256 kts 106°
2026-05-05 11:35 61.21468 -149.29233 16244 ft 257 kts 106°
2026-05-05 11:35 61.21154 -149.25955 16386 ft 260 kts 107°
2026-05-05 11:35 61.20837 -149.22641 16655 ft 260 kts 106°
2026-05-05 11:35 61.20514 -149.19284 16813 ft 262 kts 106°
2026-05-05 11:36 61.20192 -149.15935 17015 ft 264 kts 107°
2026-05-05 11:36 61.19864 -149.12547 17185 ft 266 kts 106°
2026-05-05 11:36 61.19530 -149.09100 17402 ft 267 kts 107°
2026-05-05 11:36 61.19196 -149.05661 17555 ft 269 kts 107°
2026-05-05 11:37 61.18865 -149.02252 17784 ft 270 kts 107°
2026-05-05 11:37 61.18524 -148.98778 17922 ft 273 kts 107°
2026-05-05 11:37 61.18181 -148.95264 18155 ft 272 kts 107°
2026-05-05 11:37 61.17833 -148.91728 18302 ft 274 kts 107°
2026-05-05 11:38 61.17482 -148.88174 18465 ft 276 kts 107°
2026-05-05 11:38 61.17136 -148.84666 18658 ft 277 kts 107°
2026-05-05 11:38 61.16781 -148.81091 18799 ft 279 kts 107°
2026-05-05 11:38 61.16421 -148.77472 18988 ft 280 kts 107°
2026-05-05 11:39 61.16041 -148.73650 19214 ft 279 kts 107°
2026-05-05 11:39 61.15663 -148.69867 19424 ft 280 kts 107°
2026-05-05 11:39 61.15287 -148.66116 19588 ft 281 kts 108°
2026-05-05 11:39 61.14912 -148.62393 19792 ft 281 kts 107°
2026-05-05 11:40 61.14528 -148.58588 19991 ft 282 kts 107°
2026-05-05 11:40 61.14145 -148.54803 20133 ft 284 kts 108°
2026-05-05 11:40 61.13906 -148.52437 20309 ft 282 kts 107°
2026-05-05 11:41 61.13539 -148.48837 20452 ft 283 kts 108°
2026-05-05 11:41 61.12991 -148.45460 20611 ft 276 kts 121°
2026-05-05 11:41 61.12188 -148.42172 20727 ft 277 kts 122°
2026-05-05 11:41 61.11390 -148.38886 20830 ft 279 kts 121°
2026-05-05 11:42 61.10605 -148.35658 21088 ft 276 kts 122°
2026-05-05 11:42 61.09811 -148.32423 21174 ft 278 kts 123°
2026-05-05 11:42 61.08998 -148.29125 21278 ft 280 kts 123°
2026-05-05 11:42 61.08186 -148.25829 21460 ft 279 kts 123°
2026-05-05 11:43 61.07367 -148.22513 21573 ft 280 kts 123°
2026-05-05 11:43 61.06538 -148.19173 21682 ft 281 kts 123°
2026-05-05 11:43 61.05700 -148.15788 21900 ft 278 kts 123°
2026-05-05 11:43 61.04877 -148.12480 21977 ft 281 kts 123°
2026-05-05 11:44 61.04026 -148.09065 22073 ft 281 kts 122°
2026-05-05 11:44 61.03189 -148.05705 22206 ft 281 kts 122°
2026-05-05 11:44 61.02337 -148.02292 22393 ft 280 kts 123°
2026-05-05 11:44 61.01488 -147.98897 22484 ft 280 kts 123°
2026-05-05 11:45 61.00627 -147.95459 22621 ft 279 kts 123°
2026-05-05 11:45 60.99747 -147.91954 22666 ft 282 kts 123°
2026-05-05 11:45 60.98854 -147.88399 22754 ft 282 kts 123°
2026-05-05 11:45 60.97966 -147.84874 22829 ft 282 kts 124°
2026-05-05 11:46 60.97093 -147.81410 22941 ft 282 kts 123°
2026-05-05 11:46 60.96222 -147.77965 22978 ft 283 kts 124°
2026-05-05 11:46 60.95344 -147.74490 23057 ft 283 kts 124°
2026-05-05 11:46 60.94456 -147.70990 23102 ft 285 kts 123°
2026-05-05 11:47 60.93603 -147.67624 23170 ft 285 kts 124°
2026-05-05 11:47 60.92728 -147.64178 23261 ft 284 kts 124°
2026-05-05 11:47 60.91859 -147.60767 23288 ft 286 kts 124°
2026-05-05 11:47 60.90987 -147.57340 23390 ft 284 kts 124°
2026-05-05 11:48 60.89216 -147.50409 23540 ft 284 kts 124°
2026-05-05 11:48 60.88329 -147.46947 23557 ft 286 kts 124°
2026-05-05 11:48 60.87456 -147.43538 23695 ft 283 kts 124°
2026-05-05 11:49 60.86571 -147.40096 23707 ft 286 kts 124°
2026-05-05 11:49 60.85668 -147.36586 23800 ft 285 kts 124°
2026-05-05 11:49 60.84767 -147.33089 23876 ft 284 kts 126°
2026-05-05 11:49 60.83888 -147.29684 23936 ft 284 kts 126°
2026-05-05 11:50 60.82983 -147.26183 23958 ft 286 kts 126°
2026-05-05 11:50 60.82079 -147.22690 24057 ft 284 kts 126°
2026-05-05 11:50 60.81189 -147.19257 24089 ft 285 kts 126°
2026-05-05 11:50 60.80293 -147.15810 24094 ft 287 kts 126°
2026-05-05 11:51 60.79377 -147.12286 24172 ft 285 kts 126°
2026-05-05 11:51 60.78513 -147.08968 24194 ft 286 kts 126°
2026-05-05 11:51 60.77663 -147.05710 24249 ft 286 kts 127°
2026-05-05 11:51 60.76811 -147.02449 24271 ft 286 kts 126°
2026-05-05 11:52 60.75917 -146.99031 24332 ft 285 kts 127°
2026-05-05 11:52 60.75045 -146.95703 24355 ft 285 kts 127°
2026-05-05 11:52 60.74197 -146.92459 24563 ft 279 kts 127°
2026-05-05 11:52 60.73622 -146.90265 24732 ft 274 kts 127°
2026-05-05 11:53 60.72794 -146.87112 24968 ft 269 kts 128°
2026-05-05 11:53 60.71984 -146.84039 25158 ft 265 kts 128°
2026-05-05 11:53 60.71155 -146.80907 25199 ft 268 kts 128°
2026-05-05 11:53 60.70296 -146.77672 25212 ft 271 kts 128°
2026-05-05 11:54 60.69435 -146.74419 25217 ft 274 kts 128°
2026-05-05 11:54 60.68558 -146.71109 25243 ft 276 kts 128°
2026-05-05 11:54 60.67673 -146.67776 25253 ft 278 kts 128°
2026-05-05 11:54 60.66773 -146.64412 25124 ft 295 kts 128°
2026-05-05 11:55 60.65831 -146.60902 25270 ft 315 kts 128°
2026-05-05 11:55 60.64805 -146.57065 25480 ft 333 kts 127°
2026-05-05 11:55 60.63710 -146.52971 25672 ft 352 kts 127°
2026-05-05 11:55 60.62551 -146.48640 25811 ft 371 kts 127°
2026-05-05 11:56 60.61335 -146.44106 25906 ft 390 kts 127°
2026-05-05 11:56 60.60061 -146.39368 26079 ft 406 kts 126°
2026-05-05 11:56 60.58733 -146.34422 26125 ft 425 kts 127°
2026-05-05 11:56 60.57379 -146.29408 26510 ft 433 kts 126°
2026-05-05 11:57 60.56004 -146.24297 27042 ft 437 kts 127°
2026-05-05 11:57 60.54641 -146.19257 27568 ft 441 kts 127°
2026-05-05 11:57 60.53281 -146.14241 28077 ft 444 kts 127°
2026-05-05 11:57 60.51891 -146.09131 28618 ft 446 kts 127°
2026-05-05 11:58 60.50505 -146.04048 28998 ft 450 kts 127°
2026-05-05 11:58 60.49102 -145.98912 29586 ft 449 kts 127°
2026-05-05 11:58 60.47711 -145.93829 30031 ft 449 kts 127°
2026-05-05 11:58 60.46330 -145.88797 30500 ft 448 kts 128°
2026-05-05 11:59 60.44951 -145.83792 30868 ft 448 kts 127°
2026-05-05 11:59 60.43548 -145.78709 31203 ft 448 kts 127°
2026-05-05 11:59 60.42153 -145.73668 31463 ft 450 kts 127°
2026-05-05 11:59 60.40765 -145.68655 31783 ft 450 kts 127°
2026-05-05 12:00 60.39341 -145.63531 32107 ft 451 kts 127°
2026-05-05 12:00 60.37923 -145.58435 32509 ft 450 kts 127°
2026-05-05 12:00 60.36499 -145.53334 32800 ft 452 kts 127°
2026-05-05 12:00 60.35070 -145.48221 33193 ft 452 kts 127°
2026-05-05 12:01 60.33649 -145.43152 33563 ft 452 kts 127°
2026-05-05 12:01 60.32226 -145.38086 33923 ft 453 kts 127°
2026-05-05 12:01 60.30806 -145.33041 34374 ft 452 kts 127°
2026-05-05 12:01 60.29390 -145.28017 34851 ft 450 kts 127°
2026-05-05 12:02 60.27979 -145.23029 35315 ft 448 kts 127°
2026-05-05 12:02 60.26545 -145.17969 35623 ft 450 kts 127°
2026-05-05 12:02 60.25122 -145.12964 35924 ft 451 kts 127°
2026-05-05 12:02 60.23703 -145.07976 36245 ft 453 kts 127°
2026-05-05 12:03 60.22270 -145.02953 36556 ft 453 kts 127°
2026-05-05 12:03 60.20826 -144.97905 36855 ft 454 kts 127°
2026-05-05 12:03 60.19359 -144.92783 37150 ft 454 kts 126°
2026-05-05 12:03 60.17906 -144.87721 37466 ft 454 kts 126°
2026-05-05 12:04 60.16460 -144.82700 37735 ft 455 kts 126°
2026-05-05 12:04 60.14994 -144.77615 37935 ft 457 kts 126°
2026-05-05 12:04 60.13523 -144.72525 38276 ft 456 kts 126°
2026-05-05 12:04 60.12040 -144.67406 38541 ft 457 kts 126°
2026-05-05 12:05 60.10545 -144.62257 38894 ft 455 kts 126°
2026-05-05 12:05 60.09072 -144.57196 39074 ft 458 kts 126°
2026-05-05 12:05 60.07570 -144.52043 39387 ft 456 kts 126°
2026-05-05 12:05 60.06077 -144.46941 39613 ft 457 kts 126°
2026-05-05 12:06 60.04587 -144.41852 39862 ft 457 kts 125°
2026-05-05 12:06 60.03109 -144.36819 40116 ft 457 kts 125°
2026-05-05 12:06 60.01595 -144.31674 40319 ft 457 kts 126°
2026-05-05 12:06 60.00113 -144.26648 40578 ft 456 kts 126°
2026-05-05 12:07 59.98613 -144.21574 40769 ft 457 kts 126°
2026-05-05 12:07 59.97131 -144.16566 40823 ft 451 kts 125°
2026-05-05 12:07 59.94208 -144.06731 40834 ft 453 kts 126°
2026-05-05 12:08 59.91208 -143.96678 40841 ft 458 kts 126°
2026-05-05 12:08 59.88217 -143.86697 40866 ft 456 kts 126°
2026-05-05 12:09 59.85222 -143.76750 40848 ft 456 kts 126°
2026-05-05 12:09 59.82216 -143.66806 40846 ft 456 kts 126°
2026-05-05 12:10 59.79211 -143.56905 40861 ft 455 kts 126°
2026-05-05 12:10 59.76214 -143.47081 40852 ft 457 kts 126°
2026-05-05 12:11 59.73178 -143.37166 40866 ft 456 kts 126°
2026-05-05 12:11 59.70166 -143.27370 40845 ft 454 kts 127°
2026-05-05 12:12 59.67134 -143.17555 40856 ft 456 kts 127°
2026-05-05 12:12 59.64068 -143.07671 40861 ft 456 kts 127°
2026-05-05 12:13 59.61024 -142.97896 40864 ft 455 kts 127°
2026-05-05 12:13 59.57987 -142.88185 40873 ft 455 kts 127°
2026-05-05 12:14 59.54908 -142.78383 40859 ft 457 kts 127°
2026-05-05 12:14 59.51839 -142.68651 40868 ft 458 kts 127°
2026-05-05 12:15 59.48737 -142.58858 40864 ft 457 kts 127°
2026-05-05 12:15 59.45642 -142.49127 40872 ft 457 kts 127°
2026-05-05 12:16 59.42551 -142.39447 40870 ft 457 kts 127°
2026-05-05 12:16 59.39423 -142.29695 40876 ft 458 kts 128°
2026-05-05 12:17 59.36326 -142.20076 40888 ft 458 kts 128°
2026-05-05 12:17 59.33186 -142.10370 40883 ft 458 kts 128°
2026-05-05 12:18 59.30053 -142.00719 40886 ft 459 kts 128°
2026-05-05 12:18 59.26891 -141.91023 40886 ft 459 kts 128°
2026-05-05 12:19 59.23726 -141.81354 40890 ft 459 kts 128°
2026-05-05 12:19 59.20581 -141.71786 40881 ft 459 kts 128°
2026-05-05 12:20 59.17408 -141.62178 40888 ft 460 kts 128°
2026-05-05 12:20 59.14224 -141.52570 40889 ft 460 kts 128°
2026-05-05 12:21 59.11011 -141.42914 40893 ft 459 kts 128°
2026-05-05 12:21 59.07808 -141.33331 40888 ft 461 kts 129°
2026-05-05 12:22 59.04630 -141.23856 40881 ft 459 kts 129°
2026-05-05 12:22 59.01401 -141.14273 40882 ft 461 kts 129°
2026-05-05 12:23 58.98146 -141.04652 40883 ft 461 kts 129°
2026-05-05 12:23 58.94895 -140.95077 40886 ft 460 kts 130°
2026-05-05 12:24 58.91626 -140.85494 40894 ft 460 kts 130°
2026-05-05 12:24 58.88376 -140.76000 40913 ft 460 kts 130°
2026-05-05 12:25 58.85117 -140.66519 40915 ft 460 kts 130°
2026-05-05 12:25 58.81863 -140.57100 40910 ft 459 kts 130°
2026-05-05 12:26 58.78238 -140.48357 40918 ft 452 kts 137°
2026-05-05 12:26 58.74426 -140.39905 40911 ft 453 kts 137°
2026-05-05 12:27 58.70610 -140.31547 40918 ft 452 kts 138°
2026-05-05 12:27 58.66764 -140.23189 40916 ft 451 kts 139°
2026-05-05 12:28 58.62946 -140.14932 40926 ft 451 kts 139°
2026-05-05 12:28 58.59110 -140.06670 40929 ft 451 kts 139°
2026-05-05 12:29 58.55236 -139.98361 40934 ft 452 kts 139°
2026-05-05 12:29 58.51386 -139.90132 40931 ft 452 kts 139°
2026-05-05 12:30 58.47505 -139.81869 40933 ft 452 kts 139°
2026-05-05 12:30 58.43653 -139.73694 40933 ft 451 kts 139°
2026-05-05 12:31 58.39777 -139.65498 40933 ft 451 kts 139°
2026-05-05 12:31 58.35914 -139.57359 40936 ft 450 kts 139°
2026-05-05 12:32 58.32050 -139.49249 40934 ft 451 kts 139°
2026-05-05 12:32 58.28149 -139.41087 40939 ft 452 kts 139°
2026-05-05 12:33 58.24252 -139.32960 40934 ft 450 kts 140°
2026-05-05 12:33 58.20385 -139.24928 40932 ft 450 kts 140°
2026-05-05 12:34 58.16472 -139.16829 40928 ft 453 kts 140°
2026-05-05 12:34 58.12577 -139.08794 40931 ft 451 kts 140°
2026-05-05 12:35 58.08659 -139.00737 40926 ft 452 kts 140°
2026-05-05 12:35 58.04722 -138.92673 40921 ft 453 kts 140°
2026-05-05 12:36 58.00817 -138.84698 40916 ft 451 kts 140°
2026-05-05 12:36 57.96896 -138.76724 40937 ft 452 kts 140°
2026-05-05 12:37 57.92934 -138.68692 40934 ft 453 kts 140°
2026-05-05 12:37 57.89010 -138.60761 40955 ft 451 kts 140°
2026-05-05 12:38 57.85048 -138.52786 40968 ft 452 kts 141°
2026-05-05 12:38 57.81102 -138.44869 40962 ft 452 kts 141°
2026-05-05 12:39 57.77168 -138.37001 40963 ft 452 kts 141°
2026-05-05 12:39 57.73222 -138.29138 40954 ft 451 kts 142°
2026-05-05 12:40 57.69278 -138.21304 40943 ft 450 kts 142°
2026-05-05 12:40 57.65313 -138.13458 40951 ft 450 kts 142°
2026-05-05 12:41 57.61382 -138.05707 40952 ft 452 kts 142°
2026-05-05 12:41 57.57481 -137.98035 40960 ft 451 kts 142°
2026-05-05 12:42 57.53520 -137.90274 40941 ft 451 kts 142°
2026-05-05 12:42 57.49580 -137.82581 40960 ft 452 kts 142°
2026-05-05 12:43 57.45673 -137.74976 40954 ft 450 kts 142°
2026-05-05 12:43 57.41711 -137.67291 40960 ft 451 kts 142°
2026-05-05 12:44 57.37730 -137.59595 40950 ft 452 kts 142°
2026-05-05 12:44 57.33747 -137.51920 40952 ft 452 kts 142°
2026-05-05 12:45 57.29784 -137.44310 40955 ft 452 kts 142°
2026-05-05 12:45 57.25813 -137.36708 40958 ft 452 kts 142°
2026-05-05 12:46 57.21824 -137.29099 40965 ft 450 kts 143°
2026-05-05 12:46 57.17873 -137.21584 40963 ft 451 kts 143°
2026-05-05 12:47 57.13900 -137.14056 40970 ft 451 kts 143°
2026-05-05 12:47 57.09907 -137.06511 40964 ft 452 kts 143°
2026-05-05 12:48 57.05912 -136.98993 40969 ft 452 kts 143°
2026-05-05 12:48 57.01957 -136.91569 40963 ft 452 kts 143°
2026-05-05 12:49 56.98027 -136.84216 40956 ft 451 kts 143°
2026-05-05 12:49 56.94095 -136.76884 40973 ft 452 kts 143°
2026-05-05 12:50 56.90111 -136.69481 40965 ft 453 kts 143°
2026-05-05 12:50 56.86112 -136.62071 40984 ft 453 kts 143°
2026-05-05 12:51 56.82059 -136.54587 40987 ft 455 kts 143°
2026-05-05 12:51 56.77967 -136.47055 40988 ft 457 kts 143°
2026-05-05 12:52 56.73853 -136.39508 40989 ft 456 kts 143°
2026-05-05 12:52 56.69716 -136.31944 40984 ft 458 kts 144°
2026-05-05 12:53 56.65655 -136.24539 40991 ft 456 kts 144°
2026-05-05 12:53 56.61560 -136.17104 40994 ft 458 kts 144°
2026-05-05 12:54 56.55436 -136.06020 41009 ft 457 kts 144°
2026-05-05 12:55 56.51350 -135.98656 40990 ft 457 kts 144°
2026-05-05 12:55 56.47271 -135.91333 40984 ft 459 kts 144°
2026-05-05 12:56 56.43179 -135.84004 40984 ft 458 kts 144°
2026-05-05 12:56 56.39045 -135.76628 40981 ft 459 kts 144°
2026-05-05 12:57 56.34882 -135.69223 40976 ft 460 kts 144°
2026-05-05 12:57 56.30676 -135.61763 40986 ft 460 kts 144°
2026-05-05 12:58 56.26481 -135.54347 40978 ft 458 kts 144°
2026-05-05 12:58 56.22303 -135.46989 40984 ft 461 kts 144°
2026-05-05 12:59 56.18076 -135.39565 40987 ft 459 kts 144°
2026-05-05 12:59 56.13829 -135.32135 40981 ft 461 kts 144°
2026-05-05 13:00 56.07494 -135.21089 40984 ft 462 kts 144°
2026-05-05 13:01 55.98992 -135.06351 40967 ft 460 kts 144°
2026-05-05 13:01 55.94741 -134.99020 40970 ft 462 kts 144°
2026-05-05 13:02 55.90469 -134.91676 40962 ft 462 kts 144°
2026-05-05 13:02 55.86230 -134.84410 40974 ft 463 kts 144°
2026-05-05 13:03 55.81932 -134.77068 40981 ft 463 kts 144°
2026-05-05 13:03 55.77654 -134.69780 40972 ft 462 kts 144°
2026-05-05 13:04 55.73375 -134.62515 40980 ft 461 kts 144°
2026-05-05 13:04 55.69101 -134.55286 40976 ft 463 kts 144°
2026-05-05 13:05 55.64778 -134.47996 40983 ft 464 kts 144°
2026-05-05 13:05 55.60445 -134.40709 40982 ft 464 kts 144°
2026-05-05 13:06 55.56090 -134.33412 40980 ft 464 kts 145°
2026-05-05 13:06 55.51744 -134.26150 40979 ft 463 kts 145°
2026-05-05 13:07 55.47367 -134.18864 40980 ft 464 kts 144°
2026-05-05 13:07 55.42982 -134.11585 40985 ft 465 kts 144°
2026-05-05 13:08 55.38583 -134.04308 40974 ft 466 kts 144°
2026-05-05 13:08 55.34183 -133.97049 40976 ft 465 kts 144°
2026-05-05 13:09 55.29795 -133.89835 40976 ft 466 kts 144°
2026-05-05 13:09 55.25380 -133.82599 40980 ft 466 kts 144°
2026-05-05 13:10 55.20992 -133.75433 40984 ft 466 kts 144°
2026-05-05 13:10 55.16626 -133.68321 40978 ft 466 kts 144°
2026-05-05 13:11 55.12244 -133.61208 40988 ft 466 kts 144°
2026-05-05 13:11 55.07890 -133.54163 40986 ft 467 kts 144°
2026-05-05 13:12 55.03491 -133.47067 40986 ft 468 kts 144°
2026-05-05 13:12 54.99097 -133.39999 40983 ft 466 kts 144°
2026-05-05 13:13 54.94703 -133.32958 40978 ft 468 kts 145°
2026-05-05 13:13 54.90219 -133.25792 40966 ft 468 kts 144°
2026-05-05 13:14 54.85735 -133.18648 40975 ft 470 kts 144°
2026-05-05 13:14 54.81241 -133.11511 40964 ft 471 kts 144°
2026-05-05 13:15 54.76711 -133.04338 40953 ft 468 kts 144°
2026-05-05 13:15 54.72186 -132.97198 40973 ft 469 kts 144°
2026-05-05 13:16 54.67598 -132.89981 40964 ft 469 kts 144°
2026-05-05 13:16 54.63014 -132.82794 40964 ft 470 kts 144°
2026-05-05 13:17 54.58429 -132.75627 40967 ft 470 kts 144°
2026-05-05 13:17 54.53828 -132.68459 40963 ft 471 kts 144°
2026-05-05 13:18 54.49243 -132.61337 40965 ft 471 kts 144°
2026-05-05 13:18 54.44644 -132.54219 40968 ft 472 kts 144°
2026-05-05 13:19 54.40029 -132.47096 40960 ft 472 kts 144°
2026-05-05 13:19 54.35417 -132.39998 40965 ft 471 kts 144°
2026-05-05 13:20 54.30738 -132.32823 40965 ft 472 kts 145°
2026-05-05 13:20 54.26125 -132.25771 40956 ft 472 kts 145°
2026-05-05 13:21 54.21454 -132.18652 40955 ft 473 kts 144°
2026-05-05 13:21 54.16732 -132.11481 40956 ft 475 kts 144°
2026-05-05 13:22 54.12017 -132.04338 40967 ft 474 kts 144°
2026-05-05 13:22 54.07277 -131.97183 40964 ft 475 kts 144°
2026-05-05 13:23 54.02546 -131.90065 40961 ft 474 kts 144°
2026-05-05 13:23 53.97792 -131.82935 40967 ft 475 kts 144°
2026-05-05 13:24 53.93034 -131.75819 40958 ft 476 kts 144°
2026-05-05 13:24 53.88219 -131.68643 40968 ft 475 kts 144°
2026-05-05 13:25 53.83411 -131.61499 40969 ft 475 kts 144°
2026-05-05 13:25 53.78592 -131.54364 40967 ft 477 kts 144°
2026-05-05 13:26 53.73725 -131.47177 40966 ft 477 kts 144°
2026-05-05 13:26 53.68887 -131.40059 40960 ft 477 kts 144°
2026-05-05 13:27 53.64008 -131.32901 40951 ft 478 kts 145°
2026-05-05 13:27 53.59144 -131.25789 40951 ft 478 kts 144°
2026-05-05 13:28 53.54251 -131.18655 40948 ft 477 kts 144°
2026-05-05 13:28 53.49364 -131.11554 40952 ft 478 kts 144°
2026-05-05 13:29 53.44445 -131.04430 40952 ft 478 kts 144°
2026-05-05 13:29 53.39542 -130.97350 40946 ft 478 kts 144°
2026-05-05 13:30 53.34629 -130.90279 40946 ft 480 kts 144°
2026-05-05 13:30 53.29680 -130.83177 40946 ft 481 kts 144°
2026-05-05 13:31 53.24756 -130.76137 40944 ft 481 kts 144°
2026-05-05 13:31 53.19799 -130.69069 40941 ft 482 kts 144°
2026-05-05 13:32 53.14800 -130.61964 40938 ft 482 kts 144°
2026-05-05 13:32 53.09791 -130.54868 40940 ft 482 kts 144°
2026-05-05 13:33 53.04782 -130.47795 40942 ft 482 kts 144°
2026-05-05 13:33 52.99820 -130.40808 40948 ft 482 kts 144°
2026-05-05 13:34 52.94833 -130.33810 40945 ft 482 kts 144°
2026-05-05 13:34 52.89831 -130.26813 40943 ft 482 kts 144°
2026-05-05 13:35 52.84791 -130.19783 40946 ft 483 kts 144°
2026-05-05 13:35 52.79773 -130.12808 40948 ft 483 kts 144°
2026-05-05 13:36 52.74769 -130.05872 40949 ft 484 kts 144°
2026-05-05 13:36 52.69738 -129.98923 40948 ft 484 kts 144°
2026-05-05 13:37 52.64701 -129.91983 40947 ft 483 kts 144°
2026-05-05 13:37 52.59648 -129.85045 40946 ft 483 kts 144°
2026-05-05 13:38 52.54613 -129.78154 40945 ft 484 kts 144°
2026-05-05 13:38 52.49509 -129.71190 40943 ft 485 kts 144°
2026-05-05 13:39 52.44435 -129.64287 40943 ft 484 kts 144°
2026-05-05 13:39 52.39343 -129.57381 40939 ft 486 kts 144°
2026-05-05 13:40 52.34198 -129.50424 40940 ft 486 kts 144°
2026-05-05 13:40 52.29131 -129.43597 40943 ft 485 kts 143°
2026-05-05 13:41 52.23984 -129.36681 40944 ft 487 kts 143°
2026-05-05 13:41 52.18828 -129.29774 40934 ft 487 kts 144°
2026-05-05 13:42 52.13668 -129.22885 40942 ft 488 kts 144°
2026-05-05 13:42 52.08521 -129.16034 40944 ft 487 kts 144°
2026-05-05 13:43 52.03329 -129.09145 40945 ft 488 kts 144°
2026-05-05 13:43 51.98206 -129.02367 40946 ft 489 kts 144°
2026-05-05 13:44 51.92981 -128.95476 40948 ft 489 kts 144°
2026-05-05 13:44 51.87819 -128.88687 40951 ft 489 kts 144°
2026-05-05 13:45 51.82655 -128.81918 40949 ft 489 kts 144°
2026-05-05 13:45 51.77436 -128.75099 40943 ft 489 kts 143°
2026-05-05 13:46 51.72246 -128.68337 40936 ft 489 kts 143°
2026-05-05 13:46 51.67031 -128.61565 40944 ft 490 kts 143°
2026-05-05 13:47 51.61865 -128.54872 40948 ft 490 kts 143°
2026-05-05 13:47 51.56659 -128.48152 40949 ft 489 kts 143°
2026-05-05 13:48 51.51503 -128.41516 40955 ft 490 kts 143°
2026-05-05 13:48 51.46307 -128.34848 40960 ft 490 kts 144°
2026-05-05 13:49 51.41137 -128.28233 40958 ft 490 kts 144°
2026-05-05 13:49 51.35942 -128.21606 40960 ft 491 kts 143°
2026-05-05 13:50 51.30799 -128.15065 40964 ft 491 kts 143°
2026-05-05 13:50 51.25635 -128.08516 40967 ft 490 kts 143°
2026-05-05 13:51 51.20514 -128.02042 40962 ft 489 kts 143°
2026-05-05 13:51 51.15362 -127.95548 40968 ft 490 kts 143°
2026-05-05 13:52 51.10215 -127.89076 40973 ft 490 kts 143°
2026-05-05 13:52 51.05013 -127.82557 40973 ft 492 kts 143°
2026-05-05 13:53 50.99807 -127.76051 40971 ft 493 kts 143°
2026-05-05 13:53 50.94591 -127.69553 40968 ft 492 kts 143°
2026-05-05 13:54 50.89355 -127.63046 40969 ft 491 kts 143°
2026-05-05 13:54 50.84106 -127.56546 40966 ft 492 kts 143°
2026-05-05 13:55 50.78872 -127.50082 40970 ft 492 kts 143°
2026-05-05 13:55 50.73646 -127.43646 40970 ft 493 kts 143°
2026-05-05 13:56 50.68387 -127.37189 40968 ft 494 kts 142°
2026-05-05 13:56 50.63164 -127.30795 40947 ft 493 kts 143°
2026-05-05 13:57 50.57902 -127.24370 40939 ft 492 kts 143°
2026-05-05 13:57 50.52641 -127.17966 40956 ft 493 kts 143°
2026-05-05 13:58 50.47414 -127.11623 40969 ft 493 kts 143°
2026-05-05 13:58 50.42153 -127.05257 40971 ft 493 kts 143°
2026-05-05 13:59 50.34268 -126.95747 40969 ft 494 kts 143°
2026-05-05 14:00 50.27182 -126.87238 40972 ft 495 kts 143°
2026-05-05 14:00 50.21010 -126.79851 40967 ft 494 kts 143°
2026-05-05 14:01 50.15664 -126.73474 40974 ft 495 kts 143°
2026-05-05 14:01 50.10357 -126.67162 40984 ft 495 kts 142°
2026-05-05 14:02 50.05059 -126.60878 41003 ft 495 kts 142°
2026-05-05 14:02 49.99744 -126.54593 41025 ft 495 kts 142°
2026-05-05 14:03 49.94474 -126.48377 41029 ft 495 kts 142°
2026-05-05 14:03 49.89159 -126.42127 41012 ft 495 kts 142°
2026-05-05 14:04 49.83815 -126.35859 41004 ft 496 kts 142°
2026-05-05 14:04 49.78484 -126.29626 41002 ft 495 kts 143°
2026-05-05 14:05 49.73146 -126.23402 41006 ft 496 kts 143°
2026-05-05 14:05 49.67815 -126.17202 40992 ft 496 kts 143°
2026-05-05 14:06 49.62452 -126.10983 40984 ft 496 kts 143°
2026-05-05 14:06 49.57132 -126.04834 40981 ft 498 kts 143°
2026-05-05 14:07 49.51791 -125.98675 40975 ft 498 kts 142°
2026-05-05 14:07 49.46512 -125.92604 40973 ft 498 kts 142°
2026-05-05 14:08 49.41233 -125.86550 40976 ft 497 kts 142°
2026-05-05 14:08 49.35942 -125.80501 40984 ft 497 kts 142°
2026-05-05 14:09 49.30541 -125.74341 40989 ft 498 kts 142°
2026-05-05 14:09 49.25217 -125.68288 40983 ft 498 kts 142°
2026-05-05 14:10 49.19984 -125.62354 40989 ft 498 kts 142°
2026-05-05 14:10 49.14679 -125.56353 40984 ft 500 kts 142°
2026-05-05 14:11 49.09209 -125.50183 40985 ft 498 kts 142°
2026-05-05 14:11 49.03855 -125.44160 40983 ft 498 kts 142°
2026-05-05 14:12 48.98445 -125.38093 40983 ft 499 kts 142°
2026-05-05 14:12 48.93090 -125.32102 40975 ft 499 kts 143°
2026-05-05 14:13 48.87722 -125.26115 40971 ft 499 kts 142°
2026-05-05 14:13 48.82407 -125.20202 40971 ft 499 kts 142°
2026-05-05 14:14 48.77070 -125.14280 40972 ft 499 kts 142°
2026-05-05 14:14 48.71701 -125.08339 40973 ft 498 kts 142°
2026-05-05 14:15 48.69002 -125.05357 40682 ft 503 kts 142°
2026-05-05 14:15 48.66290 -125.02367 39925 ft 501 kts 142°
2026-05-05 14:15 48.63600 -124.99405 39211 ft 496 kts 142°
2026-05-05 14:15 48.60899 -124.96434 38501 ft 495 kts 142°
2026-05-05 14:16 48.58199 -124.93469 37791 ft 494 kts 142°
2026-05-05 14:16 48.55525 -124.90535 37085 ft 493 kts 142°
2026-05-05 14:16 48.52855 -124.87610 36368 ft 493 kts 142°
2026-05-05 14:16 48.50162 -124.84664 35637 ft 492 kts 142°
2026-05-05 14:17 48.47461 -124.81714 34920 ft 490 kts 142°
2026-05-05 14:17 48.44770 -124.78778 34192 ft 483 kts 142°
2026-05-05 14:17 48.42126 -124.75897 33569 ft 487 kts 142°
2026-05-05 14:17 48.39413 -124.72942 33007 ft 496 kts 142°
2026-05-05 14:18 48.36603 -124.69890 32396 ft 501 kts 142°
2026-05-05 14:18 48.33882 -124.66835 31791 ft 498 kts 138°
2026-05-05 14:18 48.31447 -124.63307 31188 ft 494 kts 129°
2026-05-05 14:18 48.29436 -124.59367 30597 ft 492 kts 120°
2026-05-05 14:19 48.27830 -124.55000 30008 ft 489 kts 111°
2026-05-05 14:19 48.26693 -124.50378 29407 ft 486 kts 102°
2026-05-05 14:19 48.26043 -124.45665 28806 ft 482 kts 93°
2026-05-05 14:19 48.25814 -124.40813 28198 ft 473 kts 89°
2026-05-05 14:20 48.25531 -124.36092 27604 ft 470 kts 93°
2026-05-05 14:20 48.25096 -124.31403 27017 ft 467 kts 95°
2026-05-05 14:20 48.24577 -124.26781 26435 ft 463 kts 97°
2026-05-05 14:20 48.24007 -124.22203 25858 ft 459 kts 97°
2026-05-05 14:21 48.23414 -124.17725 25294 ft 455 kts 98°
2026-05-05 14:21 48.22792 -124.13214 24727 ft 451 kts 98°
2026-05-05 14:21 48.22164 -124.08772 24175 ft 448 kts 98°
2026-05-05 14:21 48.21523 -124.04327 23623 ft 444 kts 99°
2026-05-05 14:22 48.20884 -123.99941 23077 ft 440 kts 99°
2026-05-05 14:22 48.20248 -123.95608 22534 ft 436 kts 99°
2026-05-05 14:22 48.19618 -123.91347 22005 ft 433 kts 99°
2026-05-05 14:22 48.18988 -123.87102 21487 ft 429 kts 98°
2026-05-05 14:23 48.18364 -123.82912 20964 ft 426 kts 98°
2026-05-05 14:23 48.17732 -123.78683 20449 ft 422 kts 98°
2026-05-05 14:23 48.17111 -123.74542 19947 ft 419 kts 98°
2026-05-05 14:23 48.16481 -123.70351 19480 ft 416 kts 98°
2026-05-05 14:24 48.15865 -123.66262 18983 ft 413 kts 98°
2026-05-05 14:24 48.15255 -123.62228 18488 ft 409 kts 98°
2026-05-05 14:24 48.14645 -123.58204 17984 ft 405 kts 98°
2026-05-05 14:24 48.14034 -123.54185 17486 ft 402 kts 98°
2026-05-05 14:25 48.13437 -123.50261 16996 ft 399 kts 98°
2026-05-05 14:25 48.12859 -123.46473 16518 ft 397 kts 99°
2026-05-05 14:25 48.12288 -123.42741 16047 ft 395 kts 99°
2026-05-05 14:25 48.11723 -123.39062 15578 ft 392 kts 99°
2026-05-05 14:26 48.11158 -123.35386 15113 ft 390 kts 99°
2026-05-05 14:26 48.10587 -123.31679 14638 ft 388 kts 100°
2026-05-05 14:26 48.10019 -123.28002 14161 ft 385 kts 100°
2026-05-05 14:26 48.09460 -123.24390 13694 ft 382 kts 100°
2026-05-05 14:27 48.08909 -123.20840 13217 ft 378 kts 101°
2026-05-05 14:27 48.08364 -123.17336 12777 ft 374 kts 101°
2026-05-05 14:27 48.07822 -123.13858 12372 ft 373 kts 101°
2026-05-05 14:27 48.07280 -123.10393 11928 ft 372 kts 101°
2026-05-05 14:28 48.06734 -123.06897 11405 ft 370 kts 101°
2026-05-05 14:28 48.06195 -123.03464 10954 ft 361 kts 101°
2026-05-05 14:28 48.05653 -123.00039 10861 ft 326 kts 101°
2026-05-05 14:28 48.05158 -122.96899 10940 ft 300 kts 101°
2026-05-05 14:29 48.04690 -122.93928 10921 ft 298 kts 101°
2026-05-05 14:29 48.04242 -122.91084 10919 ft 296 kts 101°
2026-05-05 14:29 48.03792 -122.88240 10926 ft 296 kts 101°
2026-05-05 14:29 48.03101 -122.85481 10922 ft 301 kts 120°
2026-05-05 14:30 48.01737 -122.83320 10941 ft 305 kts 142°
2026-05-05 14:30 48.00027 -122.81650 10933 ft 308 kts 146°
2026-05-05 14:30 47.98309 -122.80022 10926 ft 307 kts 146°
2026-05-05 14:30 47.96574 -122.78407 10612 ft 315 kts 146°
2026-05-05 14:31 47.94780 -122.76701 10560 ft 302 kts 141°
2026-05-05 14:31 47.93199 -122.74731 10478 ft 290 kts 136°
2026-05-05 14:31 47.91701 -122.72804 10201 ft 287 kts 137°
2026-05-05 14:31 47.90199 -122.70882 9914 ft 285 kts 137°
2026-05-05 14:32 47.88717 -122.68984 9607 ft 284 kts 137°
2026-05-05 14:32 47.87362 -122.67249 9327 ft 282 kts 137°
2026-05-05 14:32 47.86008 -122.65519 9068 ft 280 kts 137°
2026-05-05 14:32 47.84579 -122.63694 8784 ft 277 kts 137°
2026-05-05 14:33 47.83250 -122.61996 8434 ft 278 kts 137°
2026-05-05 14:33 47.81913 -122.60290 8052 ft 280 kts 137°
2026-05-05 14:33 47.80574 -122.58583 7738 ft 278 kts 137°
2026-05-05 14:33 47.79248 -122.56893 7377 ft 274 kts 137°
2026-05-05 14:34 47.77953 -122.55245 6933 ft 269 kts 137°
2026-05-05 14:34 47.76678 -122.53622 6461 ft 266 kts 137°
2026-05-05 14:34 47.75406 -122.52004 5986 ft 263 kts 137°
2026-05-05 14:34 47.74108 -122.50355 5532 ft 259 kts 138°
2026-05-05 14:35 47.72903 -122.48625 5055 ft 254 kts 132°
2026-05-05 14:35 47.71670 -122.46951 4645 ft 249 kts 140°
2026-05-05 14:35 47.70433 -122.45528 4239 ft 244 kts 143°
2026-05-05 14:35 47.69178 -122.44224 3846 ft 241 kts 144°
2026-05-05 14:36 47.67921 -122.43018 3452 ft 237 kts 147°
2026-05-05 14:36 47.66686 -122.41887 3073 ft 232 kts 148°
2026-05-05 14:36 47.65502 -122.40839 2775 ft 210 kts 148°
2026-05-05 14:36 47.64416 -122.39894 2475 ft 195 kts 149°
2026-05-05 14:37 47.63391 -122.39013 2238 ft 187 kts 149°